User: anonymous   Login
Location: Unspecified
(48.5670°N, 0.0000°E)
Time: 10:15:30
(UTC+00:00)
Language:

Transit 4A - Orbit

View from above orbital plane
View from above orbital plane
View from above satellite
View from above satellite

Ground track
Ground track

The orbit data is extracted from the following two-line orbital elements,

1   116U 61015A   19286.91101994 -.00000061 +00000-0 +11903-4 0  9997
2   116 066.8085 093.3438 0076671 187.3892 172.6064 13.91759808957376
Epoch (UTC): 13 October 2019 21:51:52
Eccentricity: 0.0076671
inclination: 66.8085°
perigee height: 866 km
apogee height: 978 km
right ascension of ascending node: 93.3438°
argument of perigee: 187.3892°
revolutions per day: 13.91759808
mean anomaly at epoch: 172.6064°
orbit number at epoch: 95737

The dashed part of the orbit path shows where the satellite is in the earth's shadow,  

DLR